Regional Weather Roundup
Issued by NWS

Home | Current Version | Previous Version | Graphics & Text | Print | Product List | Glossary On
Versions: 1 2 3 4 5 6 7 8 9 10 11 12 13 14 15 16 17 18 19 20 21 22 23 24 25 26 27
000
ASUS45 KPSR 160310
RWRAZ

ARIZONA HOURLY REGIONAL WEATHER ROUNDUP
NATIONAL WEATHER SERVICE PHOENIX AZ
800 PM MST FRI DEC 15 2017

NOTE: FAIR INDICATES FEW OR NO CLOUDS BELOW 12,000 FEET WITH NO
SIGNIFICANT WEATHER AND/OR OBSTRUCTIONS TO VISIBILITY.

AZZ001>003-036-160400-
NORTHWEST ARIZONA

CITY           SKY/WX    TMP DP  RH WIND       PRES   REMARKS
BULLHEAD CITY  PTCLDY    57  12  17 CALM      30.01F
KINGMAN        CLEAR     44   0  16 S10       30.06F
$$

AZZ004>008-015-016-018-160400-
NORTH CENTRAL ARIZONA

CITY           SKY/WX    TMP DP  RH WIND       PRES   REMARKS
GRAND CANYON   PTCLDY    23 -14  19 NE3       30.13F
WILLIAMS       CLEAR     30 -13  15 S8        30.12F WCI  23
PRESCOTT       CLEAR     41  -3  15 S8        30.10F
FLAGSTAFF      CLEAR     26  -7  23 CALM      30.15F
PAYSON         CLEAR     45   9  23 E6        30.12F
PAGE           CLEAR     40  11  30 CALM      30.08F
$$

AZZ009>014-017-160400-
NORTHEAST ARIZONA

CITY           SKY/WX    TMP DP  RH WIND       PRES   REMARKS
WINSLOW        PTCLDY    27  -1  30 SW3       30.13F
SAINT JOHNS    PTCLDY    26  -1  31 SW5       30.12F WCI  20
SHOW LOW       PTCLDY    28   3  34 S7        30.16S WCI  21
$$

AZZ540-542>544-546-548-160400-
GREATER PHOENIX AREA

CITY           SKY/WX    TMP DP  RH WIND       PRES   REMARKS
PHOENIX        CLEAR     62  20  19 CALM      30.00F
BUCKEYE        CLEAR     50  10  20 N8        30.02F
GLENDALE       CLEAR     57  21  24 CALM      30.03S
LUKE AFB       CLEAR     52  26  36 CALM      30.00S
DEER VALLEY    CLEAR     54   9  16 NE3       30.02S
SCOTTSDALE     CLEAR     59  19  21 CALM      30.03F
MESA-FALCON    CLEAR     57  19  23 NE3       30.03F
MESA-GATEWAY   CLEAR     55  18  22 NE8       30.03F
CHANDLER       CLEAR     57  25  28 CALM      30.02F
$$

AZZ539-553-160400-
SOUTHWEST MARICOPA COUNTY AND PINAL COUNTY

CITY           SKY/WX    TMP DP  RH WIND       PRES   REMARKS
CASA GRANDE    NOT AVBL
$$

AZZ503-504-507>509-160400-
SOUTHEAST ARIZONA

CITY           SKY/WX    TMP DP  RH WIND       PRES   REMARKS
TUCSON         CLEAR     56  16  20 E8        30.06F
DAVIS-MONTHAN  CLEAR     50  13  23 SE7       30.04F
RYAN FIELD     CLEAR    N/A N/A N/A SE5       30.07R
NOGALES        CLEAR     46  14  27 CALM      30.07F
SIERRA VISTA   CLEAR     44  13  28 SE10      30.11F
DOUGLAS        CLEAR     46  20  35 E12       30.12F
SAFFORD        CLEAR     44  15  31 E7        30.10F
$$

AZZ532-160400-
SOUTHWEST ARIZONA

CITY           SKY/WX    TMP DP  RH WIND       PRES   REMARKS
YUMA           CLEAR     61  24  24 CALM      29.99S
$$

CAZ041-043-047-048-061-525>527-560>570-160400-
SOUTHERN CALIFORNIA

CITY           SKY/WX    TMP DP  RH WIND       PRES   REMARKS
DOWNTOWN L.A.  PTCLDY    62  35  36 CALM      29.98F
L.A. AIRPORT   PTCLDY    65  39  38 W5        29.98F
SAN DIEGO      CLEAR     67  23  19 CALM      30.00F
BURBANK        PTCLDY    63  23  21 CALM      29.98F
ONTARIO        PTCLDY    64  16  15 CALM      30.00F
RIVERSIDE      CLEAR     63  23  21 CALM      30.00F
PALM SPRINGS   CLEAR     62  24  23 NW5       30.02S
EL CENTRO NAS  PTCLDY    54  21  27 W7        30.00S
IMPERIAL       PTCLDY    57  29  34 CALM      29.98S
BLYTHE         CLEAR     57  16  20 CALM      30.00F
NEEDLES        CLEAR     56  11  16 SW8       30.01F
$$

NVZ020-UTZ003-160400-
SOUTHERN NEVADA-UTAH

CITY           SKY/WX    TMP DP  RH WIND       PRES   REMARKS
LAS VEGAS      PTCLDY    53  17  24 SW3       30.01F
SALT LAKE CITY CLOUDY    32  27  81 S3        30.03F
$$

NMZ009-TXZ055-160400-
NEW MEXICO-WEST TEXAS

CITY           SKY/WX    TMP DP  RH WIND       PRES   REMARKS
ALBUQUERQUE    CLOUDY    36  12  37 CALM      30.13F
EL PASO        CLEAR     43  24  47 S6        30.16F
$$


........................KEY........................
SKY/WX - SKY CONDITION/WEATHER
TMP    - TEMPERATURE IN FAHRENHEIT
DP     - DEW POINT IN FAHRENHEIT
RH     - RELATIVE HUMIDITY IN PERCENT
WIND   - DIRECTION AND SPEED IN MILES PER HOUR (MPH)
VRB    - VARIABLE WIND DIRECTION
PRES   - MEAN SEA LEVEL PRESSURE IN INCHES OF MERCURY
         F - FALLING PRESSURE   R - RISING PRESSURE
         S - STEADY PRESSURE
VSB    - VISIBILITY IN MILES
HX     - HEAT INDEX IN FAHRENHEIT
WCI    - WIND CHILL INDEX IN FAHRENHEIT
TC     - TEMPERATURE IN CELSIUS WHICH IS ALSO KNOWN AS
         TEMPERATURE IN CENTIGRADE
AFB    - AIR FORCE BASE
         LUKE AFB IS LUKE AIR FORCE BASE
         DAVIS-MONTHAN IS DAVIS-MONTHAN AIR FORCE BASE
NAS    - NAVAL AIR STATION
         EL CENTRO NAS IS EL CENTRO NAVAL AIR STATION
N/A    - NOT AVAILABLE





USA.gov is the U.S. government's official web portal to all federal, state and local government web resources and services.